This is the latest recevied weather packets stored in our database for station/object LZ0VRC-10. If no packets are shown the sender has not sent any weather packets the latest 10 day(s).
| Time | Temp. | Humidity | Pressure | Rain* | Wind** | Luminosity | Snow |
|---|---|---|---|---|---|---|---|
| 1777198421 | 25.56° C | 18% | 1014.6 hPa | - | - | - | - |
| 1777197521 | 25° C | 20% | 1014.5 hPa | - | - | - | - |
| 1777196626 | 25° C | 21% | 1014.5 hPa | - | - | - | - |
| 1777196621 | 25° C | 21% | 1014.5 hPa | - | - | - | - |
| 1777195721 | 25° C | 20% | 1014.4 hPa | - | - | - | - |
| 1777194826 | 24.44° C | 21% | 1014.5 hPa | - | - | - | - |
| 1777194821 | 24.44° C | 21% | 1014.5 hPa | - | - | - | - |
| 1777193926 | 25° C | 22% | 1014.5 hPa | - | - | - | - |
| 1777193921 | 25° C | 22% | 1014.5 hPa | - | - | - | - |
| 1777193021 | 24.44° C | 22% | 1014.7 hPa | - | - | - | - |
| 1777192126 | 25° C | 22% | 1014.8 hPa | - | - | - | - |
| 1777192121 | 25° C | 22% | 1014.8 hPa | - | - | - | - |
| 1777191226 | 23.33° C | 23% | 1014.7 hPa | - | - | - | - |
| 1777191221 | 23.33° C | 23% | 1014.7 hPa | - | - | - | - |
| 1777190321 | 23.89° C | 22% | 1014.8 hPa | - | - | - | - |
| 1777189426 | 22.78° C | 22% | 1014.8 hPa | - | - | - | - |
| 1777189421 | 22.78° C | 22% | 1014.8 hPa | - | - | - | - |
| 1777188526 | 22.78° C | 22% | 1014.7 hPa | - | - | - | - |
| 1777188521 | 22.78° C | 22% | 1014.7 hPa | - | - | - | - |
| 1777187626 | 22.22° C | 23% | 1014.5 hPa | - | - | - | - |
| 1777187621 | 22.22° C | 23% | 1014.5 hPa | - | - | - | - |
| 1777186726 | 22.22° C | 24% | 1014.4 hPa | - | - | - | - |
| 1777186721 | 22.22° C | 24% | 1014.4 hPa | - | - | - | - |
| 1777185826 | 21.11° C | 28% | 1014.5 hPa | - | - | - | - |
| 1777185821 | 21.11° C | 28% | 1014.5 hPa | - | - | - | - |
* Rain since midnight (hover to see other rain measurements)
** Current wind speed in m/s (hover to see current wind gust speed)